Location: Drummondville
(45.8830°N, 72.4830°W)
Time: 19:39:45
(UTC-04:00)

TIGRISAT - Visible Passes

Search period start: 27 May 2018 00:00
Search period end: 06 June 2018 00:00
Orbit: 607 x 689 km, 97.8° (Epoch: 27 May)

Date Brightness Start Highest point End Pass type
(mag) Time Alt. Az. Time Alt. Az. Time Alt. Az.
27 May ? 22:25:53 10° NNE 22:30:34 66° ESE 22:33:18 24° S visible
28 May ? 00:03:48 10° NNW 00:06:42 16° WNW 00:09:33 10° W visible
28 May ? 21:16:50 10° ENE 21:19:14 14° E 21:21:37 10° ESE visible
28 May ? 22:51:46 10° N 22:56:26 70° WNW 22:59:30 20° SSW visible
29 May ? 21:41:36 10° NE 21:45:24 24° E 21:47:58 15° SE visible
29 May ? 23:17:52 10° N 23:22:12 39° WNW 23:25:42 14° SW visible
30 May ? 22:07:00 10° NNE 22:11:27 43° E 22:14:10 21° SSE visible
30 May ? 23:44:12 10° NNW 23:47:51 23° WNW 23:51:26 10° WSW visible
31 May ? 22:32:43 10° NNE 22:37:23 78° ESE 22:40:22 21° S visible
01 Jun ? 00:11:00 10° NNW 00:13:25 14° WNW 00:15:48 10° W visible
01 Jun ? 21:23:17 10° NE 21:26:08 16° E 21:28:49 10° SE visible
01 Jun ? 22:58:39 10° N 23:03:13 59° WNW 23:06:33 17° SSW visible
02 Jun ? 21:48:17 10° NE 21:52:15 28° E 21:55:00 16° SE visible
02 Jun ? 23:24:48 10° N 23:28:57 33° WNW 23:32:45 11° SW visible
03 Jun ? 22:13:47 10° NNE 22:18:16 50° E 22:21:11 20° SSE visible
03 Jun ? 23:51:14 10° NNW 23:54:35 20° WNW 23:57:51 10° WSW visible
04 Jun ? 22:39:33 10° NNE 22:44:11 89° NW 22:47:23 19° SSW visible
05 Jun ? 00:18:21 10° NW 00:20:07 12° WNW 00:21:50 10° W visible
05 Jun ? 21:29:49 10° NE 21:33:00 19° E 21:35:49 11° SE visible
05 Jun ? 23:05:33 10° N 23:09:59 50° WNW 23:13:33 15° SW visible
